Private Wetterstation Wechselburg
Wetterdaten: Donnerstag, 31.05.2018
Datum Zeit Temp. +2m Bodentemp. Temp.+5cm Temp. Wind Windchill X Diff Temp. Feuchte +2m Feuchte +5cm Luftdruck Regen Wind Richtung Richtung Sonnenschein Taupunkt Windchill Windben
31.05.2018 00:00 18,0 C 20,2 C 17,9 C 17,6 C 16,8 C 0,0 C 82 % 86 % 1013,9 hPa 0,0 l/m 0,0 km/h (0 Bft) N-NO 22 0 min 14,9 C 16,8 C 0,0 km/h (0 Bft)
31.05.2018 00:05 18,0 C 20,2 C 17,9 C 17,6 C 16,8 C 0,0 C 82 % 86 % 1013,9 hPa 0,0 l/m 0,0 km/h (0 Bft) O-NO 67 0 min 14,9 C 16,8 C 0,0 km/h (0 Bft)
31.05.2018 00:11 17,8 C 20,2 C 17,7 C 17,4 C 16,7 C 0,0 C 83 % 86 % 1013,9 hPa 0,0 l/m 0,0 km/h (0 Bft) N 0 0 min 14,9 C 16,7 C 0,0 km/h (0 Bft)
31.05.2018 00:31 17,5 C 20,2 C 17,5 C 17,0 C 16,0 C 0,0 C 83 % 87 % 1013,4 hPa 0,0 l/m 0,2 km/h (0 Bft) O-NO 67 0 min 14,6 C 16,0 C 1,6 km/h (1 Bft)
31.05.2018 00:32 17,5 C 20,2 C 17,5 C 17,0 C 16,0 C 0,0 C 83 % 87 % 1013,4 hPa 0,0 l/m 0,2 km/h (0 Bft) O-NO 67 0 min 14,6 C 16,0 C 1,6 km/h (1 Bft)
31.05.2018 00:45 17,1 C 20,1 C 17,1 C 16,7 C 15,8 C 0,0 C 83 % 87 % 1013,2 hPa 0,0 l/m 0,0 km/h (0 Bft) NO 45 0 min 14,2 C 15,8 C 0,0 km/h (0 Bft)
31.05.2018 00:50 17,0 C 20,1 C 17,1 C 16,5 C 15,5 C 0,0 C 83 % 87 % 1013,2 hPa 0,0 l/m 0,0 km/h (0 Bft) W 270 0 min 14,1 C 15,5 C 0,0 km/h (0 Bft)
31.05.2018 00:55 16,8 C 20,2 C 16,9 C 16,4 C 15,5 C 0,0 C 84 % 87 % 1013,1 hPa 0,0 l/m 0,0 km/h (0 Bft) NW 315 0 min 14,1 C 15,5 C 0,0 km/h (0 Bft)
31.05.2018 01:00 16,7 C 20,2 C 16,8 C 16,3 C 15,5 C 0,0 C 84 % 87 % 1013,1 hPa 0,0 l/m 0,0 km/h (0 Bft) NW 315 0 min 14,0 C 15,5 C 0,0 km/h (0 Bft)
31.05.2018 01:05 16,6 C 20,1 C 16,7 C 16,2 C 15,5 C 0,0 C 84 % 88 % 1013,1 hPa 0,0 l/m 0,0 km/h (0 Bft) N 360 0 min 13,9 C 15,5 C 0,0 km/h (0 Bft)
31.05.2018 01:10 16,5 C 20,3 C 16,7 C 16,1 C 15,4 C 0,0 C 84 % 88 % 1013,1 hPa 0,0 l/m 0,0 km/h (0 Bft) N 360 0 min 13,8 C 15,4 C 0,0 km/h (0 Bft)
31.05.2018 01:15 16,5 C 20,1 C 16,7 C 16,1 C 15,3 C 0,0 C 84 % 88 % 1013,4 hPa 0,0 l/m 0,0 km/h (0 Bft) S 180 0 min 13,8 C 15,3 C 0,0 km/h (0 Bft)
31.05.2018 01:20 16,4 C 20,1 C 16,7 C 16,0 C 15,3 C 0,0 C 84 % 88 % 1013,4 hPa 0,0 l/m 0,0 km/h (0 Bft) SW 225 0 min 13,7 C 15,3 C 0,0 km/h (0 Bft)
31.05.2018 01:25 16,3 C 20,1 C 16,7 C 15,9 C 15,2 C 0,0 C 84 % 88 % 1013,4 hPa 0,0 l/m 0,0 km/h (0 Bft) W-SW 247 0 min 13,6 C 15,2 C 0,0 km/h (0 Bft)
31.05.2018 01:30 16,2 C 20,1 C 16,5 C 15,8 C 15,0 C 0,0 C 85 % 88 % 1013,4 hPa 0,0 l/m 0,0 km/h (0 Bft) NW 315 0 min 13,7 C 15,0 C 0,0 km/h (0 Bft)
31.05.2018 01:35 16,0 C 20,2 C 16,4 C 15,7 C 15,0 C 0,0 C 85 % 88 % 1013,2 hPa 0,0 l/m 0,0 km/h (0 Bft) NW 315 0 min 13,5 C 15,0 C 0,0 km/h (0 Bft)
31.05.2018 01:40 15,9 C 20,1 C 16,3 C 15,6 C 15,0 C 0,0 C 85 % 88 % 1013,2 hPa 0,0 l/m 0,0 km/h (0 Bft) NW 315 0 min 13,4 C 15,0 C 0,0 km/h (0 Bft)
31.05.2018 01:45 15,9 C 20,1 C 16,3 C 15,6 C 15,0 C 0,0 C 85 % 88 % 1013,2 hPa 0,0 l/m 0,0 km/h (0 Bft) NW 315 0 min 13,4 C 15,0 C 0,0 km/h (0 Bft)
31.05.2018 01:50 15,8 C 20,1 C 16,2 C 15,5 C 15,0 C 0,0 C 85 % 88 % 1013,2 hPa 0,0 l/m 0,0 km/h (0 Bft) N-NW 337 0 min 13,3 C 15,0 C 0,0 km/h (0 Bft)
31.05.2018 01:55 15,7 C 20,1 C 16,3 C 15,5 C 15,0 C 0,0 C 85 % 89 % 1013,2 hPa 0,0 l/m 0,0 km/h (0 Bft) N-NW 337 0 min 13,2 C 15,0 C 0,0 km/h (0 Bft)
31.05.2018 02:00 15,7 C 20,2 C 16,2 C 15,5 C 15,1 C 0,0 C 85 % 89 % 1013,2 hPa 0,0 l/m 0,0 km/h (0 Bft) N-NW 337 0 min 13,2 C 15,1 C 0,0 km/h (0 Bft)
31.05.2018 02:05 15,6 C 20,1 C 16,2 C 15,4 C 15,1 C 0,0 C 85 % 89 % 1013,2 hPa 0,0 l/m 0,0 km/h (0 Bft) N-NO 22 0 min 13,1 C 15,1 C 0,0 km/h (0 Bft)
31.05.2018 02:11 15,5 C 20,1 C 16,1 C 15,3 C 15,0 C 0,0 C 85 % 89 % 1013,2 hPa 0,0 l/m 0,0 km/h (0 Bft) N 0 0 min 13,0 C 15,0 C 0,0 km/h (0 Bft)
31.05.2018 02:28 15,2 C 20,0 C 15,9 C 15,0 C 14,5 C 0,0 C 85 % 89 % 1013,1 hPa 0,0 l/m 0,0 km/h (0 Bft) N-NW 337 0 min 12,7 C 14,5 C 0,0 km/h (0 Bft)
31.05.2018 02:40 14,9 C 20,0 C 15,5 C 14,7 C 14,3 C 0,0 C 85 % 89 % 1013,1 hPa 0,0 l/m 0,0 km/h (0 Bft) N-NO 22 0 min 12,4 C 14,3 C 0,0 km/h (0 Bft)
31.05.2018 02:45 14,8 C 20,1 C 15,5 C 14,6 C 14,3 C 0,0 C 85 % 89 % 1013,1 hPa 0,0 l/m 0,0 km/h (0 Bft) NO 45 0 min 12,3 C 14,3 C 0,0 km/h (0 Bft)
31.05.2018 02:50 14,7 C 20,2 C 15,6 C 14,7 C 14,6 C 0,0 C 85 % 89 % 1013,1 hPa 0,0 l/m 0,0 km/h (0 Bft) NO 45 0 min 12,2 C 14,6 C 0,0 km/h (0 Bft)
31.05.2018 02:55 14,7 C 20,2 C 15,7 C 14,8 C 14,8 C 0,1 C 86 % 89 % 1013,0 hPa 0,0 l/m 0,0 km/h (0 Bft) N-NO 22 0 min 12,4 C 14,8 C 0,0 km/h (0 Bft)
31.05.2018 03:00 14,7 C 20,2 C 15,7 C 14,8 C 14,8 C 0,1 C 86 % 89 % 1013,0 hPa 0,0 l/m 0,0 km/h (0 Bft) N-NW 337 0 min 12,4 C 14,8 C 0,0 km/h (0 Bft)
31.05.2018 03:05 14,6 C 20,2 C 15,7 C 14,7 C 14,7 C 0,1 C 86 % 89 % 1013,0 hPa 0,0 l/m 0,0 km/h (0 Bft) N-NW 337 0 min 12,3 C 14,7 C 0,0 km/h (0 Bft)
31.05.2018 03:10 14,7 C 20,2 C 15,7 C 14,6 C 14,5 C 0,0 C 86 % 89 % 1013,0 hPa 0,0 l/m 0,0 km/h (0 Bft) N-NW 337 0 min 12,4 C 14,5 C 0,0 km/h (0 Bft)
31.05.2018 03:15 14,6 C 20,2 C 15,6 C 14,5 C 14,4 C 0,0 C 86 % 89 % 1013,3 hPa 0,0 l/m 0,0 km/h (0 Bft) W 270 0 min 12,3 C 14,4 C 0,0 km/h (0 Bft)
31.05.2018 03:20 14,4 C 20,2 C 15,4 C 14,3 C 14,1 C 0,0 C 86 % 89 % 1013,3 hPa 0,0 l/m 0,0 km/h (0 Bft) W 270 0 min 12,1 C 14,1 C 0,0 km/h (0 Bft)
31.05.2018 03:25 14,4 C 20,2 C 15,4 C 14,3 C 14,1 C 0,0 C 86 % 89 % 1013,3 hPa 0,0 l/m 0,0 km/h (0 Bft) S 180 0 min 12,1 C 14,1 C 0,0 km/h (0 Bft)
31.05.2018 03:30 14,3 C 20,2 C 15,3 C 14,2 C 14,1 C 0,0 C 86 % 89 % 1013,3 hPa 0,0 l/m 0,0 km/h (0 Bft) W 270 0 min 12,0 C 14,1 C 0,0 km/h (0 Bft)
31.05.2018 03:35 14,2 C 20,2 C 15,3 C 14,2 C 14,1 C 0,0 C 86 % 89 % 1013,2 hPa 0,0 l/m 0,0 km/h (0 Bft) W 270 0 min 11,9 C 14,1 C 0,0 km/h (0 Bft)
31.05.2018 03:40 14,3 C 20,2 C 15,2 C 14,2 C 13,9 C 0,0 C 86 % 89 % 1013,2 hPa 0,0 l/m 0,0 km/h (0 Bft) W 270 0 min 12,0 C 13,9 C 0,0 km/h (0 Bft)
31.05.2018 03:45 14,1 C 20,0 C 15,3 C 14,1 C 14,0 C 0,0 C 86 % 89 % 1013,2 hPa 0,0 l/m 0,0 km/h (0 Bft) W 270 0 min 11,8 C 14,0 C 0,0 km/h (0 Bft)
31.05.2018 03:50 14,0 C 19,9 C 15,2 C 14,0 C 14,0 C 0,0 C 86 % 89 % 1013,2 hPa 0,0 l/m 0,0 km/h (0 Bft) W 270 0 min 11,7 C 14,0 C 0,0 km/h (0 Bft)
31.05.2018 03:55 14,1 C 19,9 C 15,3 C 14,0 C 13,9 C 0,0 C 86 % 89 % 1013,2 hPa 0,0 l/m 0,0 km/h (0 Bft) W 270 0 min 11,8 C 13,9 C 0,0 km/h (0 Bft)
31.05.2018 04:00 13,9 C 19,9 C 15,1 C 13,9 C 13,9 C 0,0 C 86 % 89 % 1013,2 hPa 0,0 l/m 0,0 km/h (0 Bft) W 270 0 min 11,6 C 13,9 C 0,0 km/h (0 Bft)
31.05.2018 04:05 13,9 C 20,0 C 15,1 C 14,0 C 14,0 C 0,1 C 86 % 89 % 1013,2 hPa 0,0 l/m 0,0 km/h (0 Bft) W 270 0 min 11,6 C 14,0 C 0,0 km/h (0 Bft)
31.05.2018 04:11 13,9 C 20,0 C 15,1 C 14,1 C 14,1 C 0,2 C 86 % 89 % 1013,2 hPa 0,0 l/m 0,0 km/h (0 Bft) N 0 0 min 11,6 C 14,1 C 0,0 km/h (0 Bft)
31.05.2018 04:27 13,8 C 19,8 C 15,1 C 13,9 C 13,9 C 0,1 C 86 % 89 % 1013,6 hPa 0,0 l/m 0,0 km/h (0 Bft) S-SW 202 0 min 11,5 C 13,9 C 0,0 km/h (0 Bft)
31.05.2018 04:28 13,8 C 19,8 C 15,1 C 13,9 C 13,9 C 0,1 C 86 % 89 % 1013,6 hPa 0,0 l/m 0,0 km/h (0 Bft) S-SW 202 0 min 11,5 C 13,9 C 0,0 km/h (0 Bft)
31.05.2018 04:40 13,6 C 19,8 C 14,8 C 13,6 C 13,6 C 0,0 C 86 % 89 % 1013,8 hPa 0,0 l/m 0,0 km/h (0 Bft) W 270 0 min 11,3 C 13,6 C 0,0 km/h (0 Bft)
31.05.2018 04:45 13,5 C 19,7 C 14,9 C 13,6 C 13,6 C 0,1 C 86 % 89 % 1013,8 hPa 0,0 l/m 0,0 km/h (0 Bft) W 270 0 min 11,2 C 13,6 C 0,0 km/h (0 Bft)
31.05.2018 04:50 13,5 C 19,8 C 14,8 C 13,5 C 13,5 C 0,0 C 86 % 89 % 1013,8 hPa 0,0 l/m 0,0 km/h (0 Bft) W-SW 247 0 min 11,2 C 13,5 C 0,0 km/h (0 Bft)
31.05.2018 04:55 13,5 C 19,8 C 14,9 C 13,5 C 13,5 C 0,0 C 86 % 90 % 1013,4 hPa 0,0 l/m 0,0 km/h (0 Bft) W-SW 247 0 min 11,2 C 13,5 C 0,0 km/h (0 Bft)
31.05.2018 05:00 13,3 C 19,7 C 14,8 C 13,5 C 13,5 C 0,2 C 86 % 89 % 1013,4 hPa 0,0 l/m 0,0 km/h (0 Bft) W 270 0 min 11,0 C 13,5 C 0,0 km/h (0 Bft)
31.05.2018 05:05 13,3 C 19,7 C 14,8 C 13,5 C 13,5 C 0,2 C 86 % 90 % 1013,4 hPa 0,0 l/m 0,0 km/h (0 Bft) W-SW 247 0 min 11,0 C 13,5 C 0,0 km/h (0 Bft)
31.05.2018 05:10 13,3 C 19,7 C 14,8 C 13,5 C 13,5 C 0,2 C 86 % 89 % 1013,4 hPa 0,0 l/m 0,0 km/h (0 Bft) W-SW 247 0 min 11,0 C 13,5 C 0,0 km/h (0 Bft)
31.05.2018 05:15 13,2 C 19,7 C 14,9 C 13,6 C 13,6 C 0,4 C 86 % 90 % 1013,2 hPa 0,0 l/m 0,0 km/h (0 Bft) W-SW 247 5 min 10,9 C 13,6 C 0,0 km/h (0 Bft)
31.05.2018 05:20 13,2 C 19,7 C 14,8 C 13,6 C 13,6 C 0,4 C 86 % 89 % 1013,2 hPa 0,0 l/m 0,0 km/h (0 Bft) W-SW 247 5 min 10,9 C 13,6 C 0,0 km/h (0 Bft)
31.05.2018 05:25 13,2 C 19,7 C 14,8 C 13,6 C 13,6 C 0,4 C 86 % 89 % 1013,2 hPa 0,0 l/m 0,0 km/h (0 Bft) W-SW 247 5 min 10,9 C 13,6 C 0,0 km/h (0 Bft)
31.05.2018 05:30 13,2 C 19,7 C 14,9 C 13,7 C 13,7 C 0,5 C 86 % 89 % 1013,2 hPa 0,0 l/m 0,0 km/h (0 Bft) W-NW 292 5 min 10,9 C 13,7 C 0,0 km/h (0 Bft)
31.05.2018 05:35 13,2 C 19,6 C 14,8 C 13,7 C 13,7 C 0,5 C 86 % 89 % 1013,2 hPa 0,0 l/m 0,0 km/h (0 Bft) W 270 0 min 10,9 C 13,7 C 0,0 km/h (0 Bft)
31.05.2018 05:40 13,2 C 19,6 C 14,8 C 13,8 C 13,8 C 0,6 C 86 % 89 % 1013,2 hPa 0,0 l/m 0,0 km/h (0 Bft) W-SW 247 0 min 10,9 C 13,8 C 0,0 km/h (0 Bft)
31.05.2018 05:45 13,2 C 19,6 C 14,9 C 13,8 C 13,8 C 0,6 C 86 % 89 % 1013,2 hPa 0,0 l/m 0,0 km/h (0 Bft) W-SW 247 0 min 10,9 C 13,8 C 0,0 km/h (0 Bft)
31.05.2018 05:50 13,1 C 19,7 C 15,1 C 13,9 C 13,9 C 0,8 C 87 % 89 % 1013,2 hPa 0,0 l/m 0,0 km/h (0 Bft) W-SW 247 0 min 11,0 C 13,9 C 0,0 km/h (0 Bft)
31.05.2018 05:55 13,2 C 19,6 C 15,1 C 14,1 C 14,1 C 0,9 C 87 % 89 % 1013,6 hPa 0,0 l/m 0,0 km/h (0 Bft) W 270 0 min 11,1 C 14,1 C 0,0 km/h (0 Bft)
31.05.2018 06:00 13,2 C 19,6 C 15,2 C 14,3 C 14,3 C 1,1 C 87 % 89 % 1013,6 hPa 0,0 l/m 0,0 km/h (0 Bft) NW 315 0 min 11,1 C 14,3 C 0,0 km/h (0 Bft)
31.05.2018 06:05 13,2 C 19,6 C 15,3 C 14,5 C 14,5 C 1,3 C 87 % 89 % 1013,6 hPa 0,0 l/m 0,0 km/h (0 Bft) NW 315 0 min 11,1 C 14,5 C 0,0 km/h (0 Bft)
31.05.2018 06:11 13,5 C 19,6 C 15,5 C 14,7 C 14,7 C 1,2 C 87 % 89 % 1013,6 hPa 0,0 l/m 0,0 km/h (0 Bft) N 0 0 min 11,4 C 14,7 C 0,0 km/h (0 Bft)
31.05.2018 06:27 13,8 C 19,5 C 15,9 C 15,4 C 15,4 C 1,6 C 87 % 89 % 1013,6 hPa 0,0 l/m 0,0 km/h (0 Bft) W-SW 247 0 min 11,7 C 15,4 C 0,0 km/h (0 Bft)
31.05.2018 06:28 13,8 C 19,5 C 15,9 C 15,4 C 15,4 C 1,6 C 87 % 89 % 1013,6 hPa 0,0 l/m 0,0 km/h (0 Bft) W-SW 247 0 min 11,7 C 15,4 C 0,0 km/h (0 Bft)
31.05.2018 06:40 14,1 C 19,4 C 16,5 C 16,0 C 16,0 C 1,9 C 87 % 89 % 1013,7 hPa 0,0 l/m 0,0 km/h (0 Bft) W-SW 247 0 min 12,0 C 16,0 C 0,0 km/h (0 Bft)
31.05.2018 06:45 14,1 C 19,4 C 16,6 C 16,1 C 16,1 C 2,0 C 87 % 89 % 1013,7 hPa 0,0 l/m 0,0 km/h (0 Bft) SW 225 0 min 12,0 C 16,1 C 0,0 km/h (0 Bft)
31.05.2018 06:50 14,2 C 19,3 C 16,8 C 16,5 C 16,5 C 2,3 C 87 % 89 % 1013,7 hPa 0,0 l/m 0,0 km/h (0 Bft) W-SW 247 0 min 12,1 C 16,5 C 0,0 km/h (0 Bft)
31.05.2018 06:55 14,3 C 19,3 C 16,9 C 16,8 C 16,8 C 2,5 C 87 % 89 % 1013,6 hPa 0,0 l/m 0,0 km/h (0 Bft) SW 225 0 min 12,2 C 16,8 C 0,0 km/h (0 Bft)
31.05.2018 07:00 14,4 C 19,2 C 17,3 C 20,0 C 20,0 C 5,6 C 87 % 89 % 1013,6 hPa 0,0 l/m 0,0 km/h (0 Bft) W 270 5 min 12,3 C 20,0 C 0,0 km/h (0 Bft)
31.05.2018 07:05 14,7 C 19,2 C 17,4 C 22,0 C 22,0 C 7,3 C 87 % 89 % 1013,6 hPa 0,0 l/m 0,0 km/h (0 Bft) SW 225 5 min 12,6 C 22,0 C 0,0 km/h (0 Bft)
31.05.2018 07:10 15,0 C 19,2 C 17,6 C 23,6 C 23,6 C 8,6 C 87 % 89 % 1013,6 hPa 0,0 l/m 0,0 km/h (0 Bft) W 270 5 min 12,9 C 23,6 C 0,0 km/h (0 Bft)
31.05.2018 07:15 15,3 C 19,2 C 17,8 C 23,8 C 23,8 C 8,5 C 87 % 88 % 1013,4 hPa 0,0 l/m 0,2 km/h (0 Bft) NW 315 5 min 13,1 C 23,8 C 0,0 km/h (0 Bft)
31.05.2018 07:20 15,7 C 19,1 C 17,9 C 25,1 C 25,1 C 9,4 C 88 % 88 % 1013,4 hPa 0,0 l/m 0,2 km/h (0 Bft) W-SW 247 5 min 13,7 C 25,1 C 0,0 km/h (0 Bft)
31.05.2018 07:25 15,9 C 19,1 C 17,8 C 25,1 C 25,1 C 9,2 C 88 % 88 % 1013,4 hPa 0,0 l/m 0,0 km/h (0 Bft) W-SW 247 5 min 13,9 C 25,1 C 0,0 km/h (0 Bft)
31.05.2018 07:30 16,1 C 19,1 C 18,0 C 24,8 C 24,8 C 8,7 C 87 % 88 % 1013,4 hPa 0,0 l/m 0,0 km/h (0 Bft) SW 225 5 min 13,9 C 24,8 C 0,0 km/h (0 Bft)
31.05.2018 07:35 16,3 C 19,1 C 18,1 C 25,6 C 25,6 C 9,3 C 87 % 88 % 1013,4 hPa 0,0 l/m 0,0 km/h (0 Bft) SW 225 5 min 14,1 C 25,6 C 0,0 km/h (0 Bft)
31.05.2018 07:40 16,7 C 19,1 C 18,2 C 26,5 C 26,5 C 9,8 C 87 % 88 % 1013,4 hPa 0,0 l/m 0,0 km/h (0 Bft) S 180 5 min 14,5 C 26,5 C 0,0 km/h (0 Bft)
31.05.2018 07:45 16,9 C 19,1 C 18,5 C 27,1 C 27,1 C 10,2 C 87 % 88 % 1013,4 hPa 0,0 l/m 0,0 km/h (0 Bft) S-SO 157 5 min 14,7 C 27,1 C 1,6 km/h (1 Bft)
31.05.2018 07:50 17,2 C 19,1 C 18,5 C 27,5 C 27,5 C 10,3 C 86 % 87 % 1013,4 hPa 0,0 l/m 0,0 km/h (0 Bft) N-NW 337 5 min 14,8 C 27,5 C 0,0 km/h (0 Bft)
31.05.2018 07:55 17,6 C 19,1 C 18,7 C 27,5 C 27,5 C 9,9 C 86 % 88 % 1014,0 hPa 0,0 l/m 0,0 km/h (0 Bft) N-NW 337 5 min 15,2 C 27,5 C 0,0 km/h (0 Bft)
31.05.2018 08:00 18,0 C 19,1 C 19,1 C 28,5 C 28,5 C 10,5 C 86 % 88 % 1014,0 hPa 0,0 l/m 0,0 km/h (0 Bft) NW 315 5 min 15,6 C 28,5 C 0,0 km/h (0 Bft)
31.05.2018 08:05 18,5 C 19,1 C 19,3 C 29,5 C 29,5 C 11,0 C 86 % 88 % 1014,0 hPa 0,0 l/m 0,0 km/h (0 Bft) W-NW 292 5 min 16,1 C 29,5 C 0,0 km/h (0 Bft)
31.05.2018 08:11 19,0 C 19,1 C 19,8 C 30,0 C 30,0 C 11,0 C 86 % 88 % 1014,0 hPa 0,0 l/m 0,0 km/h (0 Bft) N 0 6 min 16,6 C 30,0 C 2,1 km/h (1 Bft)
31.05.2018 08:27 20,8 C 18,9 C 20,1 C 32,1 C 32,1 C 11,3 C 84 % 87 % 1013,9 hPa 0,0 l/m 0,0 km/h (0 Bft) S-SW 202 16 min 18,0 C 32,1 C 0,0 km/h (0 Bft)
31.05.2018 08:28 20,8 C 18,9 C 20,1 C 32,1 C 32,1 C 11,3 C 84 % 87 % 1013,9 hPa 0,0 l/m 0,0 km/h (0 Bft) S-SW 202 1 min 18,0 C 32,1 C 0,0 km/h (0 Bft)
31.05.2018 08:40 22,4 C 18,9 C 20,3 C 32,8 C 32,8 C 10,4 C 80 % 86 % 1014,1 hPa 0,0 l/m 0,2 km/h (0 Bft) SW 225 12 min 18,8 C 32,8 C 2,7 km/h (1 Bft)
31.05.2018 08:45 22,7 C 18,9 C 20,5 C 32,6 C 32,6 C 9,9 C 79 % 86 % 1014,1 hPa 0,0 l/m 0,2 km/h (0 Bft) S 180 5 min 18,9 C 32,6 C 0,0 km/h (0 Bft)
31.05.2018 08:50 22,9 C 18,9 C 20,5 C 32,8 C 32,8 C 9,9 C 78 % 86 % 1014,1 hPa 0,0 l/m 0,0 km/h (0 Bft) W-SW 247 5 min 18,9 C 32,8 C 0,0 km/h (0 Bft)
31.05.2018 08:55 23,1 C 18,9 C 20,6 C 33,4 C 33,4 C 10,3 C 77 % 85 % 1013,9 hPa 0,0 l/m 0,0 km/h (0 Bft) W 270 5 min 18,8 C 33,4 C 0,0 km/h (0 Bft)
31.05.2018 09:00 23,4 C 18,9 C 20,8 C 34,0 C 34,0 C 10,6 C 76 % 85 % 1013,9 hPa 0,0 l/m 0,0 km/h (0 Bft) SO 135 5 min 18,9 C 34,0 C 0,0 km/h (0 Bft)
31.05.2018 09:05 23,7 C 18,9 C 20,9 C 33,8 C 33,8 C 10,1 C 76 % 85 % 1013,9 hPa 0,0 l/m 0,3 km/h (0 Bft) N-NO 22 5 min 19,2 C 33,8 C 2,9 km/h (1 Bft)
31.05.2018 09:10 23,9 C 19,0 C 21,3 C 32,9 C 32,9 C 9,0 C 75 % 85 % 1013,9 hPa 0,0 l/m 0,8 km/h (0 Bft) NW 315 5 min 19,2 C 32,9 C 0,0 km/h (0 Bft)
31.05.2018 09:15 24,3 C 19,0 C 21,5 C 32,9 C 32,9 C 8,6 C 75 % 84 % 1013,8 hPa 0,0 l/m 1,0 km/h (0 Bft) NO 45 5 min 19,6 C 32,9 C 2,9 km/h (1 Bft)
31.05.2018 09:20 24,3 C 19,0 C 21,7 C 32,6 C 32,6 C 8,3 C 73 % 84 % 1013,8 hPa 0,0 l/m 0,8 km/h (0 Bft) O-NO 67 5 min 19,1 C 32,6 C 1,8 km/h (1 Bft)
31.05.2018 09:25 24,2 C 19,0 C 21,9 C 32,3 C 32,3 C 8,1 C 74 % 84 % 1013,8 hPa 0,0 l/m 1,6 km/h (1 Bft) NO 45 5 min 19,3 C 32,3 C 3,9 km/h (1 Bft)
31.05.2018 09:30 24,1 C 19,0 C 22,2 C 31,8 C 31,8 C 7,7 C 74 % 84 % 1013,8 hPa 0,0 l/m 1,6 km/h (1 Bft) W-NW 292 5 min 19,2 C 31,8 C 1,9 km/h (1 Bft)
31.05.2018 09:35 24,0 C 19,0 C 22,3 C 31,8 C 31,8 C 7,8 C 74 % 84 % 1013,9 hPa 0,0 l/m 1,4 km/h (1 Bft) W 270 5 min 19,1 C 31,8 C 5,3 km/h (1 Bft)
31.05.2018 09:40 24,2 C 19,0 C 22,3 C 30,3 C 30,3 C 6,1 C 75 % 83 % 1013,9 hPa 0,0 l/m 1,0 km/h (0 Bft) O-SO 112 5 min 19,5 C 30,3 C 1,9 km/h (1 Bft)
31.05.2018 09:45 24,3 C 19,0 C 22,3 C 29,0 C 29,0 C 4,7 C 74 % 83 % 1013,9 hPa 0,0 l/m 1,0 km/h (0 Bft) W-SW 247 5 min 19,4 C 29,0 C 3,7 km/h (1 Bft)
31.05.2018 09:50 24,1 C 19,0 C 22,5 C 27,7 C 27,7 C 3,6 C 74 % 83 % 1013,9 hPa 0,0 l/m 1,8 km/h (1 Bft) NO 45 5 min 19,2 C 27,7 C 4,7 km/h (1 Bft)
31.05.2018 09:55 24,0 C 19,0 C 22,7 C 27,4 C 27,4 C 3,4 C 74 % 82 % 1014,1 hPa 0,0 l/m 1,9 km/h (1 Bft) N-NW 337 5 min 19,1 C 27,4 C 5,8 km/h (2 Bft)
31.05.2018 10:00 24,3 C 19,0 C 22,8 C 29,8 C 29,8 C 5,5 C 75 % 82 % 1014,1 hPa 0,0 l/m 1,6 km/h (1 Bft) SO 135 5 min 19,6 C 29,8 C 0,0 km/h (0 Bft)
31.05.2018 10:05 24,3 C 19,0 C 22,8 C 30,4 C 30,4 C 6,1 C 74 % 81 % 1014,1 hPa 0,0 l/m 0,6 km/h (0 Bft) SO 135 5 min 19,4 C 30,4 C 0,0 km/h (0 Bft)
31.05.2018 10:11 24,4 C 19,0 C 23,1 C 29,4 C 29,4 C 5,0 C 73 % 81 % 1014,1 hPa 0,0 l/m 1,0 km/h (0 Bft) N 0 6 min 19,2 C 29,4 C 0,0 km/h (0 Bft)
31.05.2018 10:31 24,7 C 19,0 C 23,5 C 32,9 C 32,9 C 8,2 C 72 % 78 % 1014,2 hPa 0,0 l/m 1,6 km/h (1 Bft) S-SW 202 20 min 19,3 C 32,9 C 6,0 km/h (2 Bft)
31.05.2018 10:40 25,3 C 19,1 C 24,0 C 33,3 C 33,3 C 8,0 C 70 % 77 % 1014,2 hPa 0,0 l/m 2,1 km/h (1 Bft) SW 225 9 min 19,4 C 33,3 C 0,0 km/h (0 Bft)
31.05.2018 10:45 25,5 C 19,1 C 24,1 C 33,7 C 33,7 C 8,2 C 69 % 77 % 1014,2 hPa 0,0 l/m 1,4 km/h (1 Bft) NW 315 5 min 19,4 C 33,7 C 2,1 km/h (1 Bft)
31.05.2018 10:50 25,7 C 19,1 C 24,2 C 33,6 C 33,6 C 7,9 C 70 % 76 % 1014,2 hPa 0,0 l/m 1,4 km/h (1 Bft) SO 135 5 min 19,8 C 33,6 C 2,6 km/h (1 Bft)
31.05.2018 10:55 25,7 C 19,1 C 24,3 C 33,6 C 33,6 C 7,9 C 70 % 77 % 1014,1 hPa 0,0 l/m 1,9 km/h (1 Bft) NO 45 5 min 19,8 C 33,6 C 5,1 km/h (1 Bft)
31.05.2018 11:00 25,9 C 19,1 C 24,7 C 32,9 C 32,9 C 7,0 C 66 % 74 % 1014,1 hPa 0,0 l/m 2,7 km/h (1 Bft) O-SO 112 5 min 19,0 C 32,9 C 1,8 km/h (1 Bft)
31.05.2018 11:05 25,9 C 19,2 C 24,7 C 33,0 C 33,0 C 7,1 C 67 % 74 % 1014,1 hPa 0,0 l/m 2,6 km/h (1 Bft) NW 315 5 min 19,3 C 33,0 C 7,7 km/h (2 Bft)
31.05.2018 11:10 26,3 C 19,2 C 24,8 C 33,3 C 33,3 C 7,0 C 66 % 74 % 1014,1 hPa 0,0 l/m 1,3 km/h (1 Bft) SW 225 5 min 19,4 C 33,3 C 0,0 km/h (0 Bft)
31.05.2018 11:15 26,3 C 19,2 C 24,9 C 33,0 C 33,0 C 6,7 C 65 % 74 % 1013,9 hPa 0,0 l/m 2,3 km/h (1 Bft) NW 315 5 min 19,2 C 33,0 C 4,5 km/h (1 Bft)
31.05.2018 11:20 26,3 C 19,1 C 25,3 C 32,5 C 32,5 C 6,2 C 65 % 72 % 1013,9 hPa 0,0 l/m 4,0 km/h (1 Bft) O-NO 67 5 min 19,2 C 32,5 C 7,7 km/h (2 Bft)
31.05.2018 11:25 26,3 C 19,1 C 25,4 C 31,6 C 31,6 C 5,3 C 64 % 70 % 1013,9 hPa 0,0 l/m 4,3 km/h (1 Bft) N-NW 337 5 min 18,9 C 31,6 C 8,5 km/h (2 Bft)
31.05.2018 11:30 26,5 C 19,2 C 25,7 C 31,6 C 31,6 C 5,1 C 64 % 70 % 1013,9 hPa 0,0 l/m 4,0 km/h (1 Bft) O-NO 67 5 min 19,1 C 31,6 C 6,4 km/h (2 Bft)
31.05.2018 11:35 26,4 C 19,2 C 25,9 C 31,6 C 31,6 C 5,2 C 63 % 70 % 1013,9 hPa 0,0 l/m 4,0 km/h (1 Bft) O-NO 67 5 min 18,8 C 31,6 C 5,1 km/h (1 Bft)
31.05.2018 11:40 26,6 C 19,2 C 26,0 C 32,4 C 32,4 C 5,8 C 63 % 69 % 1013,9 hPa 0,0 l/m 3,4 km/h (1 Bft) W-NW 292 5 min 19,0 C 32,4 C 1,6 km/h (1 Bft)
31.05.2018 11:45 26,8 C 19,2 C 26,1 C 33,6 C 33,6 C 6,8 C 63 % 69 % 1013,9 hPa 0,0 l/m 1,6 km/h (1 Bft) W-NW 292 5 min 19,1 C 33,6 C 2,9 km/h (1 Bft)
31.05.2018 11:50 27,1 C 19,2 C 26,2 C 34,5 C 34,5 C 7,4 C 62 % 68 % 1013,9 hPa 0,0 l/m 1,3 km/h (1 Bft) NO 45 5 min 19,2 C 34,5 C 3,1 km/h (1 Bft)
31.05.2018 11:55 27,1 C 19,2 C 26,4 C 34,5 C 34,5 C 7,4 C 62 % 67 % 1013,8 hPa 0,0 l/m 1,6 km/h (1 Bft) W 270 5 min 19,2 C 34,5 C 3,4 km/h (1 Bft)
31.05.2018 12:00 27,3 C 19,3 C 26,7 C 34,8 C 34,8 C 7,5 C 60 % 66 % 1013,8 hPa 0,0 l/m 2,1 km/h (1 Bft) N-NO 22 5 min 18,8 C 34,8 C 3,5 km/h (1 Bft)
31.05.2018 12:05 27,5 C 19,3 C 26,9 C 34,7 C 34,7 C 7,2 C 61 % 66 % 1013,8 hPa 0,0 l/m 2,7 km/h (1 Bft) N-NO 22 5 min 19,3 C 34,7 C 6,6 km/h (2 Bft)
31.05.2018 12:11 27,8 C 19,3 C 27,3 C 35,1 C 35,1 C 7,3 C 60 % 65 % 1013,8 hPa 0,0 l/m 2,4 km/h (1 Bft) N 0 6 min 19,3 C 35,1 C 4,7 km/h (1 Bft)
31.05.2018 12:31 28,0 C 19,4 C 26,9 C 31,6 C 31,6 C 3,6 C 57 % 62 % 1013,9 hPa 0,0 l/m 2,1 km/h (1 Bft) N-NO 22 20 min 18,7 C 31,6 C 1,8 km/h (1 Bft)
31.05.2018 12:40 28,3 C 19,4 C 27,1 C 31,8 C 31,8 C 3,5 C 56 % 61 % 1013,9 hPa 0,0 l/m 1,4 km/h (1 Bft) O-SO 112 9 min 18,7 C 31,8 C 3,2 km/h (1 Bft)
31.05.2018 12:45 28,5 C 19,4 C 27,5 C 32,3 C 32,3 C 3,8 C 55 % 62 % 1013,9 hPa 0,0 l/m 2,1 km/h (1 Bft) O-NO 67 5 min 18,6 C 32,3 C 5,0 km/h (1 Bft)
31.05.2018 12:50 28,9 C 19,4 C 28,0 C 34,1 C 34,1 C 5,2 C 54 % 60 % 1013,9 hPa 0,0 l/m 2,9 km/h (1 Bft) NO 45 5 min 18,6 C 34,1 C 10,1 km/h (2 Bft)
31.05.2018 12:55 28,9 C 19,4 C 28,1 C 34,3 C 34,3 C 5,4 C 53 % 58 % 1013,6 hPa 0,0 l/m 3,4 km/h (1 Bft) NO 45 5 min 18,3 C 34,3 C 7,9 km/h (2 Bft)
31.05.2018 13:00 28,8 C 19,5 C 27,7 C 33,0 C 33,0 C 4,2 C 53 % 59 % 1013,6 hPa 0,0 l/m 3,4 km/h (1 Bft) N-NO 22 5 min 18,2 C 33,0 C 0,0 km/h (0 Bft)
31.05.2018 13:05 28,7 C 19,5 C 27,5 C 32,3 C 32,3 C 3,6 C 53 % 59 % 1013,6 hPa 0,0 l/m 1,8 km/h (1 Bft) NW 315 5 min 18,2 C 32,3 C 2,7 km/h (1 Bft)
31.05.2018 13:10 28,8 C 19,5 C 27,5 C 32,3 C 32,3 C 3,5 C 54 % 59 % 1013,6 hPa 0,0 l/m 0,8 km/h (0 Bft) NO 45 5 min 18,5 C 32,3 C 1,6 km/h (1 Bft)
31.05.2018 13:15 28,9 C 19,5 C 27,8 C 32,6 C 32,6 C 3,7 C 54 % 60 % 1013,6 hPa 0,0 l/m 1,6 km/h (1 Bft) NO 45 5 min 18,6 C 32,6 C 3,9 km/h (1 Bft)
31.05.2018 13:20 29,3 C 19,4 C 28,3 C 34,0 C 34,0 C 4,7 C 53 % 57 % 1013,6 hPa 0,0 l/m 2,3 km/h (1 Bft) O-SO 112 5 min 18,7 C 34,0 C 4,0 km/h (1 Bft)
31.05.2018 13:25 29,2 C 19,5 C 28,0 C 33,4 C 33,4 C 4,2 C 52 % 58 % 1013,6 hPa 0,0 l/m 2,9 km/h (1 Bft) O-NO 67 5 min 18,3 C 33,4 C 2,6 km/h (1 Bft)
31.05.2018 13:30 29,0 C 19,6 C 28,0 C 32,6 C 32,6 C 3,6 C 53 % 58 % 1013,6 hPa 0,0 l/m 2,4 km/h (1 Bft) N-NW 337 5 min 18,4 C 32,6 C 2,1 km/h (1 Bft)
31.05.2018 13:35 29,0 C 19,6 C 27,9 C 32,3 C 32,3 C 3,3 C 52 % 58 % 1013,4 hPa 0,0 l/m 1,0 km/h (0 Bft) O 90 5 min 18,1 C 32,3 C 0,0 km/h (0 Bft)
31.05.2018 13:40 29,1 C 19,6 C 28,1 C 32,8 C 32,8 C 3,7 C 52 % 57 % 1013,4 hPa 0,0 l/m 0,3 km/h (0 Bft) N-NW 337 5 min 18,2 C 32,8 C 0,0 km/h (0 Bft)
31.05.2018 13:45 29,3 C 19,6 C 28,2 C 33,3 C 33,3 C 4,0 C 52 % 58 % 1013,4 hPa 0,0 l/m 0,8 km/h (0 Bft) NW 315 5 min 18,4 C 33,3 C 0,0 km/h (0 Bft)
31.05.2018 13:50 29,1 C 19,6 C 28,1 C 32,4 C 32,4 C 3,3 C 54 % 59 % 1013,4 hPa 0,0 l/m 2,4 km/h (1 Bft) O-NO 67 5 min 18,8 C 32,4 C 3,5 km/h (1 Bft)
31.05.2018 13:55 28,8 C 19,6 C 28,0 C 31,9 C 31,9 C 3,1 C 54 % 58 % 1013,4 hPa 0,0 l/m 3,1 km/h (1 Bft) O 90 0 min 18,5 C 31,9 C 2,1 km/h (1 Bft)
31.05.2018 14:00 28,6 C 19,6 C 28,3 C 31,4 C 31,4 C 2,8 C 55 % 60 % 1013,4 hPa 0,0 l/m 2,4 km/h (1 Bft) SO 135 0 min 18,7 C 31,4 C 0,0 km/h (0 Bft)
31.05.2018 14:05 28,9 C 19,7 C 28,2 C 31,9 C 31,9 C 3,0 C 55 % 60 % 1013,4 hPa 0,0 l/m 2,4 km/h (1 Bft) O-NO 67 0 min 18,9 C 31,9 C 6,4 km/h (2 Bft)
31.05.2018 14:11 28,5 C 19,7 C 28,1 C 30,9 C 30,9 C 2,4 C 55 % 59 % 1013,4 hPa 0,0 l/m 2,7 km/h (1 Bft) N 0 0 min 18,6 C 30,9 C 0,0 km/h (0 Bft)
31.05.2018 14:27 29,3 C 19,6 C 28,7 C 33,7 C 33,7 C 4,4 C 55 % 59 % 1013,1 hPa 0,0 l/m 3,7 km/h (1 Bft) O-NO 67 16 min 19,3 C 33,7 C 3,7 km/h (1 Bft)
31.05.2018 14:28 29,3 C 19,6 C 28,7 C 33,7 C 33,7 C 4,4 C 55 % 59 % 1013,1 hPa 0,0 l/m 3,7 km/h (1 Bft) O-NO 67 1 min 19,3 C 33,7 C 3,7 km/h (1 Bft)
31.05.2018 14:40 29,7 C 19,7 C 29,2 C 35,4 C 35,4 C 5,7 C 55 % 58 % 1013,2 hPa 0,0 l/m 2,3 km/h (1 Bft) O-NO 67 12 min 19,7 C 35,4 C 2,7 km/h (1 Bft)
31.05.2018 14:45 29,9 C 19,7 C 29,2 C 35,7 C 35,7 C 5,8 C 54 % 57 % 1013,2 hPa 0,0 l/m 1,9 km/h (1 Bft) NO 45 5 min 19,6 C 35,7 C 3,5 km/h (1 Bft)
31.05.2018 14:50 29,9 C 19,7 C 29,3 C 36,0 C 36,0 C 6,1 C 54 % 57 % 1013,2 hPa 0,0 l/m 1,9 km/h (1 Bft) N-NW 337 5 min 19,6 C 36,0 C 0,0 km/h (0 Bft)
31.05.2018 14:55 30,0 C 19,8 C 29,3 C 36,1 C 36,1 C 6,1 C 54 % 58 % 1012,9 hPa 0,0 l/m 2,1 km/h (1 Bft) SW 225 5 min 19,7 C 36,1 C 1,9 km/h (1 Bft)
31.05.2018 15:00 30,1 C 19,8 C 29,3 C 36,2 C 36,2 C 6,1 C 53 % 57 % 1012,9 hPa 0,0 l/m 1,9 km/h (1 Bft) W-SW 247 5 min 19,4 C 36,2 C 6,6 km/h (2 Bft)
31.05.2018 15:05 30,2 C 19,8 C 29,4 C 36,3 C 36,3 C 6,1 C 53 % 57 % 1012,9 hPa 0,0 l/m 2,6 km/h (1 Bft) O-NO 67 5 min 19,5 C 36,3 C 8,5 km/h (2 Bft)
31.05.2018 15:10 29,9 C 19,8 C 29,4 C 35,4 C 35,4 C 5,5 C 53 % 57 % 1012,9 hPa 0,0 l/m 4,2 km/h (1 Bft) O-SO 112 5 min 19,3 C 35,4 C 2,3 km/h (1 Bft)
31.05.2018 15:15 29,9 C 19,8 C 29,3 C 35,2 C 35,2 C 5,3 C 54 % 57 % 1012,9 hPa 0,0 l/m 4,2 km/h (1 Bft) NO 45 5 min 19,6 C 35,2 C 7,4 km/h (2 Bft)
31.05.2018 15:20 29,7 C 19,9 C 29,5 C 35,1 C 35,1 C 5,4 C 52 % 57 % 1012,9 hPa 0,0 l/m 3,2 km/h (1 Bft) NO 45 5 min 18,8 C 35,1 C 4,0 km/h (1 Bft)
31.05.2018 15:25 29,7 C 19,9 C 29,7 C 35,0 C 35,0 C 5,3 C 53 % 56 % 1012,9 hPa 0,0 l/m 3,5 km/h (1 Bft) N-NO 22 5 min 19,1 C 35,0 C 11,1 km/h (2 Bft)
31.05.2018 15:30 30,1 C 19,9 C 29,9 C 36,0 C 36,0 C 5,9 C 53 % 56 % 1012,9 hPa 0,0 l/m 2,6 km/h (1 Bft) NO 45 5 min 19,4 C 36,0 C 2,1 km/h (1 Bft)
31.05.2018 15:35 30,1 C 19,9 C 29,9 C 36,0 C 36,0 C 5,9 C 53 % 56 % 1012,9 hPa 0,0 l/m 2,4 km/h (1 Bft) O 90 5 min 19,4 C 36,0 C 4,5 km/h (1 Bft)
31.05.2018 15:40 29,6 C 19,9 C 29,5 C 34,6 C 34,6 C 5,0 C 51 % 54 % 1012,9 hPa 0,0 l/m 4,7 km/h (1 Bft) O-NO 67 5 min 18,4 C 34,6 C 5,8 km/h (2 Bft)
31.05.2018 15:45 29,3 C 19,9 C 29,1 C 33,1 C 33,1 C 3,8 C 52 % 55 % 1012,9 hPa 0,0 l/m 4,2 km/h (1 Bft) O 90 5 min 18,4 C 33,1 C 1,8 km/h (1 Bft)
31.05.2018 15:50 29,1 C 19,9 C 28,6 C 31,3 C 31,3 C 2,2 C 54 % 57 % 1012,9 hPa 0,0 l/m 2,6 km/h (1 Bft) O 90 0 min 18,8 C 31,3 C 0,0 km/h (0 Bft)
31.05.2018 15:55 28,8 C 19,9 C 28,3 C 30,1 C 30,1 C 1,3 C 54 % 59 % 1012,9 hPa 0,0 l/m 2,4 km/h (1 Bft) O-NO 67 0 min 18,5 C 30,1 C 4,5 km/h (1 Bft)
31.05.2018 16:00 28,5 C 20,0 C 27,8 C 29,1 C 29,1 C 0,6 C 55 % 59 % 1012,9 hPa 0,0 l/m 2,4 km/h (1 Bft) O-NO 67 0 min 18,6 C 29,1 C 3,5 km/h (1 Bft)
31.05.2018 16:05 28,4 C 20,0 C 27,6 C 28,7 C 28,7 C 0,3 C 56 % 60 % 1012,9 hPa 0,0 l/m 1,9 km/h (1 Bft) O-NO 67 0 min 18,8 C 28,7 C 0,0 km/h (0 Bft)
31.05.2018 16:11 28,2 C 20,1 C 27,3 C 28,3 C 28,3 C 0,1 C 56 % 61 % 1012,9 hPa 0,0 l/m 1,0 km/h (0 Bft) N 0 0 min 18,6 C 28,3 C 2,3 km/h (1 Bft)
31.05.2018 16:27 27,9 C 20,1 C 26,9 C 27,8 C 27,7 C 0,0 C 58 % 63 % 1012,8 hPa 0,0 l/m 0,2 km/h (0 Bft) N-NO 22 0 min 18,9 C 27,7 C 0,0 km/h (0 Bft)
31.05.2018 16:40 27,6 C 20,1 C 26,5 C 27,5 C 27,3 C 0,0 C 59 % 65 % 1012,6 hPa 0,0 l/m 0,0 km/h (0 Bft) W-SW 247 0 min 18,8 C 27,3 C 0,0 km/h (0 Bft)
31.05.2018 16:45 27,5 C 20,1 C 26,5 C 27,4 C 27,2 C 0,0 C 59 % 65 % 1012,6 hPa 0,0 l/m 0,2 km/h (0 Bft) O-SO 112 0 min 18,8 C 27,2 C 0,0 km/h (0 Bft)
31.05.2018 16:50 27,5 C 20,1 C 26,3 C 27,4 C 27,1 C 0,0 C 60 % 66 % 1012,6 hPa 0,0 l/m 0,2 km/h (0 Bft) W-SW 247 0 min 19,0 C 27,1 C 0,0 km/h (0 Bft)
31.05.2018 16:55 27,3 C 20,2 C 26,3 C 27,2 C 26,9 C 0,0 C 60 % 66 % 1012,6 hPa 0,0 l/m 0,0 km/h (0 Bft) NO 45 0 min 18,8 C 26,9 C 0,0 km/h (0 Bft)
31.05.2018 17:00 27,3 C 20,2 C 26,0 C 27,0 C 26,4 C 0,0 C 61 % 67 % 1012,6 hPa 0,0 l/m 0,0 km/h (0 Bft) O-NO 67 0 min 19,1 C 26,4 C 0,0 km/h (0 Bft)
31.05.2018 17:05 27,1 C 20,2 C 25,7 C 26,8 C 26,2 C 0,0 C 62 % 69 % 1012,6 hPa 0,0 l/m 0,0 km/h (0 Bft) SO 135 0 min 19,2 C 26,2 C 0,0 km/h (0 Bft)
31.05.2018 17:10 26,9 C 20,2 C 25,6 C 26,6 C 26,0 C 0,0 C 62 % 70 % 1012,6 hPa 0,0 l/m 0,0 km/h (0 Bft) NO 45 0 min 19,0 C 26,0 C 0,0 km/h (0 Bft)
31.05.2018 17:15 26,8 C 20,2 C 25,4 C 26,5 C 25,9 C 0,0 C 63 % 70 % 1012,3 hPa 0,0 l/m 0,0 km/h (0 Bft) O 90 0 min 19,1 C 25,9 C 0,0 km/h (0 Bft)
31.05.2018 17:20 26,7 C 20,2 C 25,3 C 26,4 C 25,8 C 0,0 C 63 % 70 % 1012,3 hPa 0,0 l/m 0,0 km/h (0 Bft) W 270 0 min 19,1 C 25,8 C 0,0 km/h (0 Bft)
31.05.2018 17:25 26,6 C 20,2 C 25,2 C 26,3 C 25,8 C 0,0 C 65 % 72 % 1012,3 hPa 0,0 l/m 0,0 km/h (0 Bft) W-SW 247 0 min 19,5 C 25,8 C 0,0 km/h (0 Bft)
31.05.2018 17:30 26,4 C 20,2 C 25,1 C 26,1 C 25,6 C 0,0 C 67 % 74 % 1012,3 hPa 0,0 l/m 0,0 km/h (0 Bft) SW 225 0 min 19,8 C 25,6 C 0,0 km/h (0 Bft)
31.05.2018 17:35 26,3 C 20,2 C 25,0 C 26,0 C 25,3 C 0,0 C 68 % 74 % 1012,6 hPa 0,0 l/m 0,0 km/h (0 Bft) W-NW 292 0 min 19,9 C 25,3 C 0,0 km/h (0 Bft)
31.05.2018 17:40 25,9 C 20,2 C 24,7 C 25,6 C 25,1 C 0,0 C 69 % 75 % 1012,6 hPa 0,0 l/m 0,0 km/h (0 Bft) W 270 0 min 19,8 C 25,1 C 0,0 km/h (0 Bft)
31.05.2018 17:45 25,6 C 20,2 C 24,7 C 25,4 C 24,9 C 0,0 C 70 % 75 % 1012,6 hPa 0,0 l/m 0,2 km/h (0 Bft) SO 135 0 min 19,7 C 24,9 C 0,0 km/h (0 Bft)
31.05.2018 17:50 25,4 C 20,3 C 24,5 C 25,2 C 24,7 C 0,0 C 70 % 76 % 1012,6 hPa 0,0 l/m 0,6 km/h (0 Bft) N-NO 22 0 min 19,5 C 24,7 C 1,9 km/h (1 Bft)
31.05.2018 17:55 25,3 C 20,3 C 24,5 C 25,0 C 24,5 C 0,0 C 71 % 76 % 1012,6 hPa 0,0 l/m 0,6 km/h (0 Bft) SW 225 0 min 19,7 C 24,5 C 0,0 km/h (0 Bft)
31.05.2018 18:00 25,1 C 20,3 C 24,1 C 24,7 C 23,9 C 0,0 C 72 % 77 % 1012,6 hPa 0,0 l/m 0,0 km/h (0 Bft) SW 225 0 min 19,7 C 23,9 C 0,0 km/h (0 Bft)
31.05.2018 18:05 24,8 C 20,4 C 24,0 C 24,4 C 23,5 C 0,0 C 72 % 78 % 1012,6 hPa 0,0 l/m 0,0 km/h (0 Bft) W-SW 247 0 min 19,4 C 23,5 C 0,0 km/h (0 Bft)
31.05.2018 18:11 24,7 C 20,4 C 23,9 C 24,1 C 23,0 C 0,0 C 73 % 79 % 1012,6 hPa 0,0 l/m 0,2 km/h (0 Bft) N 0 0 min 19,5 C 23,0 C 0,0 km/h (0 Bft)
31.05.2018 18:15 24,6 C 20,4 C 23,8 C 24,1 C 23,0 C 0,0 C 73 % 79 % 1012,5 hPa 0,0 l/m 0,2 km/h (0 Bft) N 0 0 min 19,4 C 23,0 C 0,0 km/h (0 Bft)
31.05.2018 18:20 24,5 C 20,4 C 23,8 C 24,1 C 23,3 C 0,0 C 74 % 79 % 1012,5 hPa 0,0 l/m 0,0 km/h (0 Bft) N-NO 22 0 min 19,6 C 23,3 C 0,0 km/h (0 Bft)
31.05.2018 18:25 24,4 C 20,4 C 23,8 C 24,1 C 23,6 C 0,0 C 75 % 79 % 1012,5 hPa 0,0 l/m 0,0 km/h (0 Bft) N-NO 22 0 min 19,7 C 23,6 C 0,0 km/h (0 Bft)
31.05.2018 18:30 24,4 C 20,4 C 23,7 C 24,3 C 24,0 C 0,0 C 75 % 80 % 1012,5 hPa 0,0 l/m 0,0 km/h (0 Bft) W 270 0 min 19,7 C 24,0 C 0,0 km/h (0 Bft)
31.05.2018 18:35 24,5 C 20,4 C 23,9 C 24,4 C 24,3 C 0,0 C 75 % 81 % 1012,1 hPa 0,0 l/m 0,0 km/h (0 Bft) SW 225 0 min 19,8 C 24,3 C 0,0 km/h (0 Bft)
31.05.2018 18:40 24,5 C 20,4 C 23,7 C 24,5 C 24,5 C 0,0 C 75 % 81 % 1012,1 hPa 0,0 l/m 0,0 km/h (0 Bft) SW 225 0 min 19,8 C 24,5 C 0,0 km/h (0 Bft)
31.05.2018 18:45 24,4 C 20,4 C 23,8 C 24,6 C 24,6 C 0,2 C 76 % 81 % 1012,1 hPa 0,0 l/m 0,0 km/h (0 Bft) S-SW 202 0 min 19,9 C 24,6 C 0,0 km/h (0 Bft)
31.05.2018 18:50 24,4 C 20,4 C 23,8 C 24,7 C 24,7 C 0,3 C 76 % 81 % 1012,1 hPa 0,0 l/m 0,0 km/h (0 Bft) S-SO 157 0 min 19,9 C 24,7 C 1,6 km/h (1 Bft)
31.05.2018 18:55 24,4 C 20,4 C 23,7 C 24,6 C 24,6 C 0,2 C 76 % 81 % 1012,4 hPa 0,0 l/m 0,0 km/h (0 Bft) SW 225 0 min 19,9 C 24,6 C 0,0 km/h (0 Bft)
31.05.2018 19:00 24,3 C 20,4 C 23,6 C 24,5 C 24,5 C 0,2 C 76 % 81 % 1012,4 hPa 0,0 l/m 0,0 km/h (0 Bft) S-SO 157 0 min 19,8 C 24,5 C 0,0 km/h (0 Bft)
31.05.2018 19:05 24,3 C 20,4 C 23,6 C 24,4 C 24,4 C 0,1 C 76 % 81 % 1012,4 hPa 0,0 l/m 0,0 km/h (0 Bft) S 180 0 min 19,8 C 24,4 C 0,0 km/h (0 Bft)
31.05.2018 19:10 24,3 C 20,4 C 23,6 C 24,3 C 24,3 C 0,0 C 77 % 82 % 1012,4 hPa 0,0 l/m 0,0 km/h (0 Bft) S 180 0 min 20,0 C 24,3 C 0,0 km/h (0 Bft)
31.05.2018 19:15 24,2 C 20,4 C 23,6 C 24,2 C 24,2 C 0,0 C 76 % 82 % 1012,6 hPa 0,0 l/m 0,0 km/h (0 Bft) S-SO 157 0 min 19,7 C 24,2 C 0,0 km/h (0 Bft)
31.05.2018 19:20 24,3 C 20,5 C 23,5 C 24,2 C 24,1 C 0,0 C 77 % 82 % 1012,6 hPa 0,0 l/m 0,0 km/h (0 Bft) SO 135 0 min 20,0 C 24,1 C 0,0 km/h (0 Bft)
31.05.2018 19:25 24,2 C 20,5 C 23,4 C 24,1 C 24,0 C 0,0 C 77 % 82 % 1012,6 hPa 0,0 l/m 0,0 km/h (0 Bft) SO 135 0 min 19,9 C 24,0 C 0,0 km/h (0 Bft)
31.05.2018 19:30 24,1 C 20,5 C 23,5 C 24,0 C 23,9 C 0,0 C 77 % 82 % 1012,6 hPa 0,0 l/m 0,0 km/h (0 Bft) SO 135 0 min 19,8 C 23,9 C 0,0 km/h (0 Bft)
31.05.2018 19:35 24,0 C 20,5 C 23,4 C 24,0 C 23,9 C 0,0 C 77 % 83 % 1012,3 hPa 0,0 l/m 0,0 km/h (0 Bft) O-NO 67 0 min 19,7 C 23,9 C 0,0 km/h (0 Bft)
31.05.2018 19:40 24,0 C 20,4 C 23,3 C 24,0 C 23,9 C 0,0 C 77 % 82 % 1012,3 hPa 0,0 l/m 0,0 km/h (0 Bft) NO 45 0 min 19,7 C 23,9 C 0,0 km/h (0 Bft)
31.05.2018 19:45 24,0 C 20,5 C 23,3 C 23,9 C 23,8 C 0,0 C 77 % 83 % 1012,3 hPa 0,0 l/m 0,0 km/h (0 Bft) NO 45 0 min 19,7 C 23,8 C 0,0 km/h (0 Bft)
31.05.2018 19:50 23,9 C 20,5 C 23,2 C 23,8 C 23,7 C 0,0 C 77 % 83 % 1012,3 hPa 0,0 l/m 0,0 km/h (0 Bft) O-NO 67 0 min 19,6 C 23,7 C 0,0 km/h (0 Bft)
31.05.2018 19:55 23,8 C 20,5 C 23,2 C 23,8 C 23,7 C 0,0 C 77 % 83 % 1012,2 hPa 0,0 l/m 0,0 km/h (0 Bft) O-NO 67 0 min 19,5 C 23,7 C 0,0 km/h (0 Bft)
31.05.2018 20:00 23,9 C 20,5 C 23,3 C 23,8 C 23,6 C 0,0 C 78 % 83 % 1012,2 hPa 0,0 l/m 0,0 km/h (0 Bft) O-NO 67 0 min 19,8 C 23,6 C 0,0 km/h (0 Bft)
31.05.2018 20:05 23,9 C 20,5 C 23,1 C 23,8 C 23,6 C 0,0 C 78 % 83 % 1012,2 hPa 0,0 l/m 0,0 km/h (0 Bft) O-NO 67 0 min 19,8 C 23,6 C 0,0 km/h (0 Bft)
31.05.2018 20:10 23,8 C 20,5 C 23,1 C 23,7 C 23,5 C 0,0 C 78 % 83 % 1012,2 hPa 0,0 l/m 0,0 km/h (0 Bft) O-NO 67 0 min 19,7 C 23,5 C 0,0 km/h (0 Bft)
31.05.2018 20:15 23,7 C 20,5 C 23,0 C 23,6 C 23,4 C 0,0 C 78 % 83 % 1012,5 hPa 0,0 l/m 0,0 km/h (0 Bft) O-NO 67 0 min 19,6 C 23,4 C 0,0 km/h (0 Bft)
31.05.2018 20:20 23,6 C 20,5 C 23,0 C 23,5 C 23,3 C 0,0 C 79 % 83 % 1012,5 hPa 0,0 l/m 0,2 km/h (0 Bft) NW 315 0 min 19,7 C 23,3 C 0,0 km/h (0 Bft)
31.05.2018 20:25 23,6 C 20,5 C 23,1 C 23,5 C 23,2 C 0,0 C 79 % 84 % 1012,5 hPa 0,0 l/m 0,2 km/h (0 Bft) NW 315 0 min 19,7 C 23,2 C 0,0 km/h (0 Bft)
31.05.2018 20:30 23,7 C 20,5 C 22,8 C 23,5 C 23,0 C 0,0 C 79 % 84 % 1012,5 hPa 0,0 l/m 0,0 km/h (0 Bft) W 270 0 min 19,8 C 23,0 C 0,0 km/h (0 Bft)
31.05.2018 20:35 23,6 C 20,5 C 22,8 C 23,4 C 22,9 C 0,0 C 79 % 85 % 1012,8 hPa 0,0 l/m 0,0 km/h (0 Bft) W-SW 247 0 min 19,7 C 22,9 C 0,0 km/h (0 Bft)
31.05.2018 20:40 23,5 C 20,5 C 22,9 C 23,2 C 22,7 C 0,0 C 80 % 85 % 1012,8 hPa 0,0 l/m 0,0 km/h (0 Bft) NW 315 0 min 19,8 C 22,7 C 0,0 km/h (0 Bft)
31.05.2018 20:45 23,5 C 20,5 C 22,8 C 23,2 C 22,6 C 0,0 C 80 % 85 % 1012,8 hPa 0,0 l/m 0,0 km/h (0 Bft) NW 315 0 min 19,8 C 22,6 C 0,0 km/h (0 Bft)
31.05.2018 20:50 23,4 C 20,5 C 22,6 C 23,1 C 22,5 C 0,0 C 80 % 84 % 1012,8 hPa 0,0 l/m 0,0 km/h (0 Bft) NW 315 0 min 19,7 C 22,5 C 0,0 km/h (0 Bft)
31.05.2018 20:55 23,2 C 20,5 C 22,5 C 23,0 C 22,5 C 0,0 C 80 % 85 % 1012,8 hPa 0,0 l/m 0,0 km/h (0 Bft) N-NO 22 0 min 19,6 C 22,5 C 0,0 km/h (0 Bft)
31.05.2018 21:00 23,1 C 20,5 C 22,4 C 22,9 C 22,4 C 0,0 C 80 % 85 % 1012,8 hPa 0,0 l/m 0,0 km/h (0 Bft) NO 45 0 min 19,5 C 22,4 C 0,0 km/h (0 Bft)
31.05.2018 21:05 23,1 C 20,5 C 22,4 C 22,9 C 22,4 C 0,0 C 80 % 85 % 1012,8 hPa 0,0 l/m 0,0 km/h (0 Bft) NO 45 0 min 19,5 C 22,4 C 0,0 km/h (0 Bft)
31.05.2018 21:10 23,0 C 20,6 C 22,2 C 22,8 C 22,3 C 0,0 C 80 % 86 % 1012,8 hPa 0,0 l/m 0,0 km/h (0 Bft) N-NO 22 0 min 19,4 C 22,3 C 0,0 km/h (0 Bft)
31.05.2018 21:15 22,9 C 20,5 C 22,3 C 22,7 C 22,2 C 0,0 C 80 % 86 % 1012,5 hPa 0,0 l/m 0,0 km/h (0 Bft) NO 45 0 min 19,3 C 22,2 C 0,0 km/h (0 Bft)
31.05.2018 21:20 22,8 C 20,5 C 22,1 C 22,5 C 22,0 C 0,0 C 80 % 85 % 1012,5 hPa 0,0 l/m 0,0 km/h (0 Bft) NO 45 0 min 19,2 C 22,0 C 0,0 km/h (0 Bft)
31.05.2018 21:25 22,7 C 20,5 C 22,0 C 22,5 C 22,0 C 0,0 C 80 % 86 % 1012,5 hPa 0,0 l/m 0,0 km/h (0 Bft) NO 45 0 min 19,1 C 22,0 C 0,0 km/h (0 Bft)
31.05.2018 21:30 22,6 C 20,5 C 21,9 C 22,3 C 21,8 C 0,0 C 80 % 86 % 1012,5 hPa 0,0 l/m 0,0 km/h (0 Bft) NO 45 0 min 19,0 C 21,8 C 0,0 km/h (0 Bft)
31.05.2018 21:35 22,5 C 20,5 C 21,9 C 22,2 C 21,6 C 0,0 C 81 % 86 % 1012,8 hPa 0,0 l/m 0,0 km/h (0 Bft) NO 45 0 min 19,1 C 21,6 C 0,0 km/h (0 Bft)
31.05.2018 21:40 22,5 C 20,5 C 21,8 C 22,2 C 21,5 C 0,0 C 81 % 86 % 1012,8 hPa 0,0 l/m 0,0 km/h (0 Bft) W-SW 247 0 min 19,1 C 21,5 C 0,0 km/h (0 Bft)
31.05.2018 21:45 22,3 C 20,6 C 21,9 C 22,0 C 21,4 C 0,0 C 81 % 86 % 1012,8 hPa 0,0 l/m 0,0 km/h (0 Bft) W-SW 247 0 min 18,9 C 21,4 C 0,0 km/h (0 Bft)
31.05.2018 21:50 22,2 C 20,6 C 21,7 C 21,9 C 21,3 C 0,0 C 82 % 87 % 1012,8 hPa 0,0 l/m 0,0 km/h (0 Bft) W-SW 247 0 min 19,0 C 21,3 C 0,0 km/h (0 Bft)
31.05.2018 21:55 22,3 C 20,7 C 21,7 C 21,9 C 21,2 C 0,0 C 82 % 87 % 1012,9 hPa 0,0 l/m 0,0 km/h (0 Bft) S 180 0 min 19,1 C 21,2 C 0,0 km/h (0 Bft)
31.05.2018 22:00 22,1 C 20,7 C 21,6 C 21,8 C 21,1 C 0,0 C 82 % 87 % 1012,9 hPa 0,0 l/m 0,0 km/h (0 Bft) SO 135 0 min 18,9 C 21,1 C 0,0 km/h (0 Bft)
31.05.2018 22:05 22,1 C 20,7 C 21,6 C 21,8 C 21,1 C 0,0 C 82 % 87 % 1012,9 hPa 0,0 l/m 0,0 km/h (0 Bft) O-NO 67 0 min 18,9 C 21,1 C 0,0 km/h (0 Bft)
31.05.2018 22:10 21,9 C 20,7 C 21,5 C 21,6 C 21,0 C 0,0 C 83 % 87 % 1012,9 hPa 0,0 l/m 0,0 km/h (0 Bft) O-NO 67 0 min 18,9 C 21,0 C 0,0 km/h (0 Bft)
31.05.2018 22:15 21,7 C 20,7 C 21,3 C 21,5 C 21,0 C 0,0 C 83 % 87 % 1013,1 hPa 0,0 l/m 0,0 km/h (0 Bft) NO 45 0 min 18,7 C 21,0 C 0,0 km/h (0 Bft)
31.05.2018 22:20 21,7 C 20,6 C 21,3 C 21,5 C 21,0 C 0,0 C 83 % 87 % 1013,1 hPa 0,0 l/m 0,0 km/h (0 Bft) NO 45 0 min 18,7 C 21,0 C 0,0 km/h (0 Bft)
31.05.2018 22:25 21,6 C 20,6 C 21,2 C 21,4 C 20,9 C 0,0 C 83 % 87 % 1013,1 hPa 0,0 l/m 0,0 km/h (0 Bft) NO 45 0 min 18,6 C 20,9 C 0,0 km/h (0 Bft)
31.05.2018 22:30 21,5 C 20,6 C 21,3 C 21,3 C 20,9 C 0,0 C 83 % 88 % 1013,1 hPa 0,0 l/m 0,0 km/h (0 Bft) W-SW 247 0 min 18,5 C 20,9 C 0,0 km/h (0 Bft)
31.05.2018 22:35 21,5 C 20,6 C 21,3 C 21,3 C 20,9 C 0,0 C 83 % 88 % 1012,7 hPa 0,0 l/m 0,0 km/h (0 Bft) W-SW 247 0 min 18,5 C 20,9 C 0,0 km/h (0 Bft)
31.05.2018 22:40 21,3 C 20,6 C 21,2 C 21,2 C 20,9 C 0,0 C 83 % 88 % 1012,7 hPa 0,0 l/m 0,0 km/h (0 Bft) S 180 0 min 18,3 C 20,9 C 0,0 km/h (0 Bft)
31.05.2018 22:45 21,3 C 20,7 C 21,2 C 21,1 C 20,8 C 0,0 C 83 % 88 % 1012,7 hPa 0,0 l/m 0,0 km/h (0 Bft) S-SO 157 0 min 18,3 C 20,8 C 0,0 km/h (0 Bft)
31.05.2018 22:50 21,2 C 20,7 C 21,2 C 21,1 C 20,8 C 0,0 C 83 % 88 % 1012,7 hPa 0,0 l/m 0,0 km/h (0 Bft) O-NO 67 0 min 18,2 C 20,8 C 0,0 km/h (0 Bft)
31.05.2018 22:55 21,1 C 20,7 C 21,1 C 21,0 C 20,7 C 0,0 C 84 % 88 % 1013,4 hPa 0,0 l/m 0,0 km/h (0 Bft) O-NO 67 0 min 18,3 C 20,7 C 0,0 km/h (0 Bft)
31.05.2018 23:00 21,0 C 20,7 C 21,0 C 20,9 C 20,7 C 0,0 C 84 % 88 % 1013,4 hPa 0,0 l/m 0,0 km/h (0 Bft) NO 45 0 min 18,2 C 20,7 C 0,0 km/h (0 Bft)
31.05.2018 23:05 21,1 C 20,7 C 21,1 C 21,0 C 20,7 C 0,0 C 84 % 88 % 1013,4 hPa 0,0 l/m 0,0 km/h (0 Bft) NO 45 0 min 18,3 C 20,7 C 0,0 km/h (0 Bft)
31.05.2018 23:10 20,9 C 20,7 C 20,9 C 20,8 C 20,7 C 0,0 C 84 % 88 % 1013,4 hPa 0,0 l/m 0,0 km/h (0 Bft) NO 45 0 min 18,1 C 20,7 C 0,0 km/h (0 Bft)
31.05.2018 23:15 20,8 C 20,7 C 20,9 C 20,8 C 20,7 C 0,0 C 84 % 88 % 1013,2 hPa 0,0 l/m 0,0 km/h (0 Bft) NO 45 0 min 18,0 C 20,7 C 0,0 km/h (0 Bft)
31.05.2018 23:20 20,8 C 20,7 C 20,9 C 20,8 C 20,7 C 0,0 C 84 % 88 % 1013,2 hPa 0,0 l/m 0,0 km/h (0 Bft) NO 45 0 min 18,0 C 20,7 C 0,0 km/h (0 Bft)
31.05.2018 23:25 20,7 C 20,6 C 20,8 C 20,7 C 20,6 C 0,0 C 84 % 88 % 1013,2 hPa 0,0 l/m 0,0 km/h (0 Bft) NW 315 0 min 17,9 C 20,6 C 0,0 km/h (0 Bft)
31.05.2018 23:30 20,7 C 20,7 C 20,8 C 20,6 C 20,5 C 0,0 C 84 % 88 % 1013,2 hPa 0,0 l/m 0,0 km/h (0 Bft) NO 45 0 min 17,9 C 20,5 C 0,0 km/h (0 Bft)
31.05.2018 23:35 20,7 C 20,7 C 20,7 C 20,6 C 20,4 C 0,0 C 84 % 88 % 1013,2 hPa 0,0 l/m 0,0 km/h (0 Bft) NO 45 0 min 17,9 C 20,4 C 0,0 km/h (0 Bft)
31.05.2018 23:40 20,5 C 20,7 C 20,7 C 20,4 C 20,3 C 0,0 C 84 % 88 % 1013,2 hPa 0,0 l/m 0,0 km/h (0 Bft) N 360 0 min 17,7 C 20,3 C 0,0 km/h (0 Bft)
31.05.2018 23:45 20,4 C 20,7 C 20,5 C 20,3 C 20,1 C 0,0 C 84 % 88 % 1013,2 hPa 0,0 l/m 0,0 km/h (0 Bft) NW 315 0 min 17,6 C 20,1 C 0,0 km/h (0 Bft)
31.05.2018 23:50 20,5 C 20,8 C 20,4 C 20,3 C 19,8 C 0,0 C 84 % 89 % 1013,2 hPa 0,0 l/m 0,0 km/h (0 Bft) NO 45 0 min 17,7 C 19,8 C 0,0 km/h (0 Bft)
31.05.2018 23:55 20,3 C 20,7 C 20,3 C 20,1 C 19,7 C 0,0 C 84 % 88 % 1012,4 hPa 0,0 l/m 0,0 km/h (0 Bft) N-NO 22 0 min 17,5 C 19,7 C 0,0 km/h (0 Bft)
_ Min-Zeit 05:50 08:27 04:40 04:50 04:50 00:00 15:40 15:40 18:35 - 00:00 - - - 05:15 04:50 00:00
Minimum _ 13,1 C 18,9 C 14,8 C 13,5 C 13,5 C 0,0 C 51 % 54 % 1012,1 hPa - 0,0 km/h (0 Bft) - - - 10,9 C 13,5 C 0,0 km/h (0 Bft)
_ Max-Zeit 15:05 23:50 15:30 15:05 15:05 08:27 07:20 04:55 10:31 00:00 15:40 - - 10:31 19:10 15:05 15:25
Maximum _ 30,2 C 20,8 C 29,9 C 36,3 C 36,3 C 11,3 C 88 % 90 % 1014,2 hPa 0,0 l/m 4,7 km/h
O-NO (1 Bft)
- - 20 min 20,0 C 36,3 C 11,1 km/h
N-NO (2 Bft)
Durchschnitt _ 21,8 C 19,9 C 21,7 C 24,3 C 24,1 C 2,6 C 75 % 79 % 1013,2 hPa #0,0 l/m 0,7 km/h (0 Bft) O-NO - #8:49 h 16,9 C 24,1 C 1,1 km/h (1 Bft)
2018 www.wetterstation-wechselburg.de